Location: Darmstadt
(49.8706°N, 8.6494°E)
Time: 21:14:18
(UTC+01:00)

Daily predictions for brighter satellites

Satellite Brightness Start Highest point End
(mag) Time Altitude Azimuth Time Altitude Azimuth Time Altitude Azimuth
NOSS 3-4 (A) 4.4 17:25:16 10° NW 17:31:26 38° NNE 17:38:14 10° E
NOSS 3-4 (C) 4.4 17:25:22 10° NW 17:31:32 38° NNE 17:38:20 10° E
ERS-2 3.0 17:31:23 10° NE 17:34:39 30° E 17:37:53 10° SSE
Okean O Rocket 1.5 17:31:04 10° SSE 17:35:23 71° ENE 17:39:44 10° N
Cosmos 1825 3.8 17:35:48 10° NNE 17:38:03 15° ENE 17:40:17 10° ESE
SeaSat 1 4.3 17:36:10 10° ENE 17:38:29 13° NNE 17:40:47 10° N
Cosmos 1300 2.7 17:35:27 10° S 17:39:12 61° E 17:42:59 10° NNE
FALCON 9 DEB 2.9 17:36:48 10° WSW 17:40:02 86° NNW 17:43:14 10° ENE
Cosmos 1697 Rocket 3.7 17:37:40 10° SSE 17:42:13 26° ESE 17:46:49 10° NE
Cosmos 1606 Rocket 3.5 17:38:30 10° S 17:42:53 82° E 17:47:21 10° NNE
H-2A R/B 3.8 17:41:17 10° S 17:45:38 50° W 17:50:03 10° NNW
Aureole 3 3.2 17:43:40 10° SSE 17:46:24 34° E 17:49:13 10° NNE
CZ-4C R/B 3.8 17:43:40 10° N 17:46:54 53° WNW 17:50:13 10° SSW
ERBS 3.8 17:44:58 10° NW 17:47:48 24° N 17:50:33 10° ENE
Cosmos 1340 2.6 17:44:18 10° N 17:48:04 61° ENE 17:51:48 10° SSE
USA 215 3.8 17:41:57 10° ENE 17:48:12 50° N 17:54:28 10° W
CSL-04 DEB 4.3 17:44:57 10° NNE 17:48:54 83° ESE 17:52:49 10° SSW
ATLAS 2AS CENTAUR R/B 3.4 17:46:10 10° NW 17:53:23 41° NNE 18:00:06 10° E
Meteor 2-16 Rocket 4.5 17:47:58 10° N 17:54:05 89° ENE 18:00:12 10° S
CZ-2C R/B 4.1 17:49:51 10° ESE 17:54:39 29° ENE 17:59:19 10° N
SKYMED 2 4.5 17:51:15 10° NE 17:55:00 28° E 17:58:44 10° SSE
Cosmos 1553 Rocket 4.3 17:49:56 10° SSE 17:55:54 47° E 18:01:50 10° NNE
Cosmos 1331 Rocket 4.5 17:50:54 10° SW 17:56:00 63° WNW 18:01:09 10° NNE
NOAA 11 4.1 17:52:24 10° SSE 17:57:48 70° ENE 18:03:13 10° N
ADEOS Rocket 3.6 17:51:35 10° NNE 17:58:06 76° WNW 18:05:19 10° SSW
Cosmos 1939 Rocket 3.2 17:55:01 10° SE 17:58:42 40° ENE 18:02:22 10° N
USA 281 3.4 17:52:43 10° SSE 17:59:17 80° WSW 18:05:54 10° NNW
CORIOLIS 4.3 17:54:02 10° SSE 17:59:23 83° WSW 18:04:48 10° NNW
Cosmos 1400 Rocket 2.8 17:56:51 10° S 18:00:55 67° E 18:04:56 10° NNE
YAOGAN 6 3.9 17:57:26 10° S 18:00:59 45° W 18:04:34 10° NNW
Cosmos 44 3.7 17:57:11 10° SW 18:01:43 60° NW 18:06:34 10° NE
Cosmos 968 Rocket 3.4 17:57:20 10° NNW 18:02:36 83° ENE 18:07:46 10° SSE
H-2A R/B 3.2 17:58:42 10° ESE 18:03:02 25° ENE 18:07:22 10° N
CZ-2D R/B 3.8 18:03:00 10° SE 18:06:29 36° ENE 18:10:00 10° N
Cosmos 1980 Rocket 3.3 18:02:38 10° SSE 18:06:52 22° ESE 18:10:40 12° NE
Cosmos 2297 Rocket 2.8 18:02:06 10° NW 18:07:41 62° WSW 18:13:16 10° SSE
Meteor 2-10 Rocket 3.9 18:03:09 10° SSE 18:08:00 40° E 18:12:43 10° NNE
FALCON 9 DEB 3.0 18:04:38 10° WNW 18:08:04 81° NNE 18:10:48 15° ESE
In-Cosmos 22 Rocket 4.1 18:03:09 10° N 18:08:35 83° E 18:14:05 10° SSE
SL-08 R/B 4.4 18:04:38 10° N 18:10:49 73° ENE 18:16:55 10° SSE
USA 307 3.4 18:07:16 10° WNW 18:11:31 60° SSW 18:15:43 10° SE
YAOGAN 3 4.5 18:10:49 10° SSE 18:15:10 72° ENE 18:19:32 10° N
Okean-O 3.0 18:12:06 10° SE 18:16:16 42° ENE 18:20:28 10° N
USA 308 3.5 18:12:21 10° WNW 18:16:34 56° SSW 18:20:45 10° SE
Cosmos 1076 Rocket 3.8 18:14:29 10° N 18:18:34 43° ENE 18:22:38 10° SSE
Cosmos 1346 Rocket 2.7 18:14:38 10° N 18:18:38 66° ENE 18:22:36 10° SSE
Cosmos 1745 Rocket 4.0 18:14:11 10° N 18:20:28 64° ENE 18:26:46 10° SSE
CZ-4B R/B 1.2 18:17:30 10° NNE 18:20:42 82° WNW 18:23:49 10° SSW
SL-4 R/B 1.7 18:18:09 10° WNW 18:21:41 80° SSW 18:24:15 19° ESE
SL-08 ROCKET BODY 4.4 18:16:27 10° N 18:22:36 75° E 18:28:46 10° SSE
Cosmos 1455 2.5 18:21:46 10° SSE 18:25:20 42° E 18:28:59 10° NNE
Cosmos 2058 Rocket 3.3 18:20:53 10° SSW 18:25:22 75° W 18:29:56 10° N
Helios 1A Rocket 3.0 18:22:07 10° SSE 18:26:08 55° ENE 18:30:08 10° N
SJ 16-02 3.4 18:25:09 10° NNE 18:26:28 12° NE 18:26:28 12° NE
Cosmos 1408 2.5 18:23:24 10° N 18:27:04 68° E 18:30:43 10° SSE
CZ-4 R/B 1.4 18:27:17 10° SE 18:31:01 49° ENE 18:34:45 10° N
GEOS 3 Rocket 4.3 18:28:51 20° E 18:31:59 39° NNE 18:36:58 10° NNW
CZ-4 R/B 4.3 18:31:23 10° SSE 18:35:32 79° ENE 18:39:43 10° NNW
Cosmos 2360 4.4 18:31:21 10° S 18:36:52 52° ESE 18:42:08 11° NE
ATLAS 5 CENTAUR R/B 3.8 18:33:58 10° NW 18:37:15 18° N 18:40:11 12° NE
Cosmos 1315 Rocket 2.8 18:33:23 10° S 18:37:17 59° E 18:41:17 10° NNE
H-2A R/B 4.1 18:33:51 10° N 18:37:22 27° WNW 18:40:51 10° WSW
Cosmos 2058 2.9 18:36:20 10° NNW 18:40:27 82° W 18:44:33 10° S
COSMO-SKYMED 1 2.5 18:38:55 10° NNE 18:43:17 80° ESE 18:47:37 10° SSW
ARGOS 3.7 18:40:01 19° ESE 18:43:19 37° ENE 18:48:16 10° N
Cosmos 1656 4.0 18:38:11 10° SW 18:43:45 68° WNW 18:49:26 10° NNE
Cosmos 2278 4.0 18:38:50 10° S 18:44:10 44° ESE 18:47:56 19° NE
IRS-1C Rocket 4.3 18:40:01 10° S 18:45:17 73° WSW 18:50:35 10° NNW
CRYOSAT 2 4.4 18:42:48 10° NNE 18:47:34 51° E 18:52:17 10° SSE
BREEZE-M R/B 3.6 18:44:31 10° W 18:48:21 73° SSW 18:52:47 23° ESE
Timation 1 Rocket 4.3 18:42:28 10° NNW 18:48:32 90° WSW 18:54:34 10° SSE
Cosmos 1709 Rocket 4.0 18:43:21 10° N 18:49:42 62° ENE 18:56:00 10° SSE
Cosmos 2082 4.2 18:44:41 10° NW 18:50:21 63° WSW 18:56:00 10° SSE
PSLV R/B 3.8 18:46:50 10° NNE 18:51:02 78° ESE 18:55:09 10° S
FALCON 9 DEB 3.4 18:48:14 10° W 18:51:21 47° N 18:51:50 43° NNE
FALCON 9 DEB 3.5 18:48:31 10° W 18:51:41 48° N 18:52:11 43° NNE
Cosmos 1503 Rocket 4.4 18:47:07 10° NNW 18:52:19 66° WSW 18:57:32 10° S
SAR-Lupe-4 4.1 18:49:03 10° N 18:52:36 60° WNW 18:56:08 10° SSW
Cosmos 2151 3.0 18:50:52 10° N 18:54:58 50° ENE 18:56:16 36° SE
YAOGAN 1 2.4 18:51:41 10° SSE 18:56:01 79° ENE 19:00:21 10° NNW
Cosmos 1689 Rocket 2.3 18:54:48 22° N 18:56:30 66° WNW 18:59:21 10° SSW
Cosmos 1844 Rocket 4.2 18:53:46 10° N 18:57:48 19° NE 18:58:08 19° NE
Cosmos 44 Rocket 3.2 18:57:07 10° SSW 19:01:53 69° SE 19:03:51 35° NE
Cosmos 1812 Rocket 3.4 18:57:56 10° S 19:02:19 81° E 19:06:42 10° NNE
Meteor 2-3 Rocket 4.0 18:57:26 10° N 19:02:58 45° ENE 19:04:59 33° ESE
Cosmos 1992 Rocket 4.1 18:59:00 10° SSW 19:04:12 74° WNW 19:09:27 10° NNE
Cosmos 883 Rocket 4.3 18:58:34 10° S 19:04:38 67° E 19:10:43 10° NNE
CZ-4C R/B 3.1 19:00:15 10° NW 19:06:52 50° NE 19:09:55 34° E
MOS 1 Rocket 3.4 19:02:52 10° NNE 19:07:33 54° E 19:12:29 10° S
CSL-04 Rocket 3.6 19:02:26 10° SSE 19:07:56 72° ENE 19:13:26 10° NNW
ERS-2 4.4 19:05:04 10° N 19:08:06 25° WNW 19:11:06 10° WSW
FALCON 9 DEB 3.7 19:05:39 10° W 19:08:37 45° NNW 19:08:37 45° NNW
Cosmos 2369 3.7 19:03:41 10° SSW 19:09:24 87° WNW 19:14:24 14° NNE
Cosmos 2263 Rocket 2.2 19:05:39 10° NNW 19:11:20 64° ENE 19:13:23 39° ESE
Cosmos 2227 Rocket 4.4 19:07:37 10° NW 19:12:11 26° WSW 19:16:45 10° SSW
Okean 3 Rocket 4.3 19:08:29 10° N 19:11:35 37° NNE 19:11:35 37° NNE
S3M 4.2 19:07:46 10° SSW 19:13:53 71° WNW 19:20:07 10° N
Cosmos 1825 2.9 19:10:12 10° NNW 19:13:54 53° W 19:17:35 10° S
SeaSat 1 2.7 19:14:43 45° ENE 19:15:00 46° NE 19:19:43 10° NNW
Lacrosse 5 2.1 19:11:14 10° NW 19:16:13 54° NNE 19:17:01 49° ENE
FALCON 9 DEB 4.0 19:13:09 10° WNW 19:15:44 40° NNW 19:15:44 40° NNW
Ariane Rocket 3.9 19:19:44 32° NE 19:19:44 32° NE 19:23:10 10° N
Cosmos 2315 Rocket 3.8 19:15:51 10° S 19:22:00 74° E 19:28:13 10° NNE
NOSS 3-4 (A) 3.8 19:16:08 10° NW 19:23:03 84° SW 19:27:39 27° SE
NOSS 3-4 (C) 3.8 19:16:14 10° NW 19:23:10 84° SW 19:27:42 27° SE
ERBS 3.6 19:21:16 10° NW 19:23:27 35° NNW 19:23:27 35° NNW
Cosmos 1697 Rocket 3.1 19:20:15 10° SW 19:25:48 60° WNW 19:30:43 14° NNE
COSMOS 2455 4.2 19:22:29 10° NNW 19:27:17 24° NNE 19:27:32 23° NNE
USA 215 3.6 19:28:39 40° ENE 19:30:40 54° NNE 19:36:59 10° WNW
NOSS 3-3 (A) 4.2 19:27:46 10° SW 19:33:43 66° NW 19:37:32 27° NE
NOSS 3-3 (C) 4.2 19:27:53 10° SW 19:33:50 67° NW 19:37:37 27° NE
CZ-2C R/B 3.9 19:28:37 10° S 19:34:15 56° W 19:39:42 10° NNW
H-2A R/B 2.5 19:36:38 10° S 19:42:02 64° WSW 19:47:28 10° NNW
ATLAS 2AS CENTAUR R/B 2.8 19:37:30 10° NW 19:45:04 79° SW 19:47:36 44° SSE
Cosmos 1980 Rocket 2.4 19:44:44 10° SW 19:50:21 69° WNW 19:52:29 38° NNE
SL-4 R/B 4.2 19:58:00 10° W 19:59:51 20° WSW 19:59:51 20° WSW
CZ-4 R/B 4.2 20:03:51 10° SW 20:06:21 16° W 20:08:50 10° NW
SJ 16-02 3.4 20:01:57 10° NNW 20:03:28 21° NNW 20:03:28 21° NNW
GEOS 3 Rocket 3.9 20:09:59 63° WSW 20:09:59 63° WSW 20:15:12 10° NW
ARGOS 4.3 20:21:32 29° SW 20:23:32 40° W 20:28:39 10° NNW
ATLAS 5 CENTAUR R/B 3.8 20:19:06 10° NNW 20:21:42 23° N 20:21:42 23° N
Cosmos 2184 Rocket 4.4 20:28:58 10° NNW 20:34:48 61° WNW 20:34:48 61° WNW
Cosmos 2278 Rocket 4.4 20:36:44 10° NNW 20:38:11 16° N 20:38:11 16° N
Cosmos 1844 Rocket 4.2 20:37:03 10° NNW 20:39:48 30° NNW 20:39:48 30° NNW
SeaSat 1 4.4 20:54:31 25° WNW 20:54:31 25° WNW 20:57:06 10° NW
Cosmos 2263 Rocket 4.0 20:50:16 10° NW 20:54:49 25° WSW 20:55:07 25° WSW
CZ-4C R/B 3.3 20:48:45 10° NW 20:55:08 59° WSW 20:55:08 59° WSW
Lacrosse 5 4.1 20:54:20 10° WNW 20:56:13 22° WNW 20:56:13 22° WNW
USA 215 4.2 21:16:01 41° WNW 21:16:01 41° WNW 21:20:04 10° WNW
